Change the Weather History Date:

Friday, August 16, 2013

  Actual Average Record
Temperature  
Mean Temperature 76 °F 76 °F  
Max Temperature 95 °F 90 °F 100 °F (2002)
Min Temperature 57 °F 62 °F 48 °F (2009)
Degree Days  
Heating Degree Days 0 0  
Month to date heating degree days 0 0  
Since 1 June heating degree days 5 23  
Since 1 July heating degree days 0 1  
Cooling Degree Days 11 11  
Month to date cooling degree days 139 191  
Year to date cooling degree days 961 883  
Since 1 June cooling degree days 906 832  
Growing Degree Days 26 (Base 50)    
Moisture  
Dew Point 30 °F    
Average Humidity 21    
Maximum Humidity 35    
Minimum Humidity 7    
Precipitation  
Precipitation 0.00 in 0.03 in 0.45 in (2010)
Month to date precipitation 0.22 0.47  
Year to date precipitation 5.01 5.37  
Snow  
Snow 0.00 in 0.00 in 0.00 in (2013)
Month to date snowfall 0.0 0.0  
Since 1 June snowfall 0.0 0.0  
Since 1 July snowfall 0.0 0.0  
Snow Depth 0.00 in    
Sea Level Pressure  
Sea Level Pressure 29.93 in    
Wind  
Wind Speed 7 mph (SE)    
Max Wind Speed 16 mph    
Max Gust Speed 20 mph    
Visibility 10 miles    
Events      
T = Trace of Precipitation, MM = Missing Value Source: NWS Daily Summary

Daily Weather History Graph

Daily Weather History Graph

Search for Another Location

Airport or City:

Trip Planner

Search our weather history database for the weather conditions in past years. The results will help you decide how hot, cold, wet, or windy it might be!

Date:

Astronomy

Aug. 16, 2013 Rise Set
Actual Time 6:28 AM MDT 8:07 PM MDT
Civil Twilight 6:00 AM MDT 8:35 PM MDT
Nautical Twilight 5:25 AM MDT 9:10 PM MDT
Astronomical Twilight 4:48 AM MDT 9:46 PM MDT
Moon 4:28 PM MDT (8/16) 1:35 AM MDT (8/16)
Length of Visible Light 14h 35m
Length of Day
13h 38m
Waxing Gibbous, 75% of the Moon is Illuminated
Aug 16
Waxing Gibbous
Aug 20
Full
Aug 28
Last Quarter
Sep 5
New
Sep 12
First Quarter

Hourly Weather History & Observations

Time (MDT) Temp. Dew Point Humidity Pressure Visibility Wind Dir Wind Speed Gust Speed Precip Events Conditions
12:53 AM 69.1 °F 24.1 °F 18% 29.91 in 10.0 mi ESE 9.2 mph - N/A   Clear
1:53 AM 70.0 °F 30.0 °F 23% 29.91 in 10.0 mi ESE 13.8 mph - N/A   Clear
2:53 AM 63.0 °F 28.9 °F 28% 29.92 in 10.0 mi SE 8.1 mph - N/A   Clear
3:53 AM 63.0 °F 28.9 °F 28% 29.93 in 10.0 mi East 9.2 mph - N/A   Clear
4:53 AM 62.1 °F 30.0 °F 30% 29.94 in 10.0 mi East 8.1 mph - N/A   Clear
5:53 AM 60.1 °F 32.0 °F 35% 29.96 in 10.0 mi SE 8.1 mph - N/A   Clear
6:53 AM 59.0 °F 30.9 °F 35% 29.99 in 10.0 mi East 4.6 mph - N/A   Clear
7:53 AM 66.0 °F 33.1 °F 29% 30.00 in 10.0 mi ESE 9.2 mph - N/A   Clear
8:53 AM 73.9 °F 32.0 °F 21% 30.02 in 10.0 mi ESE 11.5 mph - N/A   Clear
9:53 AM 73.9 °F 36.0 °F 25% 30.02 in 10.0 mi SSE 10.4 mph - N/A   Clear
10:53 AM 79.0 °F 33.1 °F 19% 30.00 in 10.0 mi SSE 8.1 mph - N/A   Clear
11:53 AM 82.9 °F 30.9 °F 15% 29.98 in 10.0 mi Variable 3.5 mph - N/A   Clear
12:53 PM 87.1 °F 33.1 °F 15% 29.96 in 10.0 mi Variable 3.5 mph - N/A   Clear
1:53 PM 91.0 °F 35.1 °F 14% 29.92 in 10.0 mi Variable 4.6 mph - N/A   Clear
2:53 PM 91.0 °F 27.0 °F 10% 29.92 in 10.0 mi SW 3.5 mph - N/A   Clear
3:53 PM 93.0 °F 21.0 °F 7% 29.90 in 10.0 mi Calm Calm - N/A   Clear
4:53 PM 93.9 °F 28.9 °F 10% 29.88 in 10.0 mi WNW 4.6 mph - N/A   Scattered Clouds
5:53 PM 95.0 °F 27.0 °F 9% 29.87 in 10.0 mi West 8.1 mph - N/A   Scattered Clouds
6:53 PM 91.9 °F 26.1 °F 9% 29.86 in 10.0 mi WSW 5.8 mph - N/A   Scattered Clouds
7:53 PM 87.1 °F 34.0 °F 15% 29.86 in 10.0 mi SW 3.5 mph - N/A   Scattered Clouds
8:53 PM 75.0 °F 30.0 °F 19% 29.88 in 10.0 mi Calm Calm - N/A   Clear
9:53 PM 72.0 °F 28.0 °F 20% 29.91 in 10.0 mi East 3.5 mph - N/A   Clear
10:53 PM 73.0 °F 28.0 °F 19% 29.91 in 10.0 mi East 5.8 mph - N/A   Clear
11:53 PM 72.0 °F 30.9 °F 22% 29.90 in 10.0 mi East 5.8 mph - N/A   Clear